Time,TemperatureF,DewpointF,PressureIn,WindDirection,WindDirectionDegrees,WindSpeedMPH,WindSpeedGustMPH,Humidity,HourlyPrecipIn,Conditions,Clouds,dailyrainin,SoftwareType,DateUTC
2013-06-15 00:01:00,57.3,49.4,29.82,NW,325,0.0,5.0,75,0.00,,,0.00,Wunderground v.1.13,2013-06-15 04:01:00,
2013-06-15 00:31:00,56.9,48.3,29.82,NW,325,0.0,5.0,73,0.00,,,0.00,Wunderground v.1.13,2013-06-15 04:31:00,
2013-06-15 01:01:00,58.3,46.6,29.84,NW,325,0.0,5.0,65,0.00,,,0.00,Wunderground v.1.13,2013-06-15 05:01:00,
2013-06-15 01:31:00,60.1,44.3,29.84,NNW,329,0.0,5.0,56,0.00,,,0.00,Wunderground v.1.13,2013-06-15 05:31:00,
2013-06-15 02:01:00,59.8,45.0,29.85,NNW,335,0.0,5.0,58,0.00,,,0.00,Wunderground v.1.13,2013-06-15 06:01:00,
2013-06-15 02:31:00,58.9,44.1,29.85,NNW,335,0.0,5.0,58,0.00,,,0.00,Wunderground v.1.13,2013-06-15 06:31:00,
2013-06-15 03:01:00,58.3,44.9,29.86,NNW,335,0.0,5.0,61,0.00,,,0.00,Wunderground v.1.13,2013-06-15 07:01:00,
2013-06-15 03:31:00,55.6,46.0,29.86,NNW,335,0.0,5.0,70,0.00,,,0.00,Wunderground v.1.13,2013-06-15 07:31:00,
2013-06-15 04:01:00,53.6,45.2,29.86,NNW,335,0.0,5.0,73,0.00,,,0.00,Wunderground v.1.13,2013-06-15 08:01:00,
2013-06-15 04:31:00,53.3,46.6,29.86,NNW,335,0.0,5.0,78,0.00,,,0.00,Wunderground v.1.13,2013-06-15 08:31:00,
2013-06-15 05:01:00,51.3,45.3,29.87,NNW,335,0.0,5.0,80,0.00,,,0.00,Wunderground v.1.13,2013-06-15 09:01:00,
2013-06-15 05:31:00,49.6,45.3,29.87,NNW,335,0.0,5.0,85,0.00,,,0.00,Wunderground v.1.13,2013-06-15 09:31:00,
2013-06-15 06:01:00,49.9,45.6,29.88,NNW,335,0.0,5.0,85,0.00,,,0.00,Wunderground v.1.13,2013-06-15 10:01:00,
2013-06-15 06:31:00,51.6,46.0,29.88,WNW,289,1.0,5.0,81,0.00,,,0.00,Wunderground v.1.13,2013-06-15 10:31:00,
2013-06-15 07:01:00,54.2,46.1,29.89,West,279,1.0,5.0,74,0.00,,,0.00,Wunderground v.1.13,2013-06-15 11:01:00,
2013-06-15 07:31:00,57.2,46.7,29.90,West,275,1.0,5.0,68,0.00,,,0.00,Wunderground v.1.13,2013-06-15 11:31:00,
2013-06-15 08:01:00,59.0,48.1,29.91,WSW,255,1.0,1.0,67,0.00,,,0.00,Wunderground v.1.13,2013-06-15 12:01:00,
2013-06-15 08:31:00,61.2,48.5,29.90,WSW,254,2.0,5.0,63,0.00,,,0.00,Wunderground v.1.13,2013-06-15 12:31:00,
2013-06-15 09:01:00,64.2,49.6,29.90,WSW,254,1.0,1.0,59,0.00,,,0.00,Wunderground v.1.13,2013-06-15 13:01:00,
2013-06-15 09:31:00,66.0,48.9,29.89,WSW,248,2.0,2.0,54,0.00,,,0.00,Wunderground v.1.13,2013-06-15 13:31:00,
2013-06-15 10:01:00,67.3,48.0,29.89,SW,232,2.0,5.0,50,0.00,,,0.00,Wunderground v.1.13,2013-06-15 14:01:00,
2013-06-15 10:31:00,69.1,48.0,29.89,WSW,257,3.0,3.0,47,0.00,,,0.00,Wunderground v.1.13,2013-06-15 14:31:00,
2013-06-15 11:01:00,70.3,42.8,29.89,WSW,252,4.0,4.0,37,0.00,,,0.00,Wunderground v.1.13,2013-06-15 15:01:00,
2013-06-15 11:31:00,71.5,39.3,29.89,SW,236,4.0,5.0,31,0.00,,,0.00,Wunderground v.1.13,2013-06-15 15:31:00,
2013-06-15 12:01:00,72.0,40.5,29.88,NW,306,4.0,4.0,32,0.00,,,0.00,Wunderground v.1.13,2013-06-15 16:01:00,
2013-06-15 12:31:00,71.8,42.7,29.88,West,281,5.0,5.0,35,0.00,,,0.00,Wunderground v.1.13,2013-06-15 16:31:00,
2013-06-15 13:01:00,73.0,43.0,29.88,West,271,4.0,4.0,34,0.00,,,0.00,Wunderground v.1.13,2013-06-15 17:01:00,
2013-06-15 13:31:00,73.5,41.0,29.86,South,184,5.0,11.0,31,0.00,,,0.00,Wunderground v.1.13,2013-06-15 17:31:00,
2013-06-15 14:01:00,74.4,43.4,29.85,WSW,242,4.0,4.0,33,0.00,,,0.00,Wunderground v.1.13,2013-06-15 18:01:00,
2013-06-15 14:31:00,74.6,42.0,29.84,WSW,253,4.0,5.0,31,0.00,,,0.00,Wunderground v.1.13,2013-06-15 18:31:00,
2013-06-15 15:01:00,75.1,43.2,29.83,SW,214,2.0,5.0,32,0.00,,,0.00,Wunderground v.1.13,2013-06-15 19:01:00,
2013-06-15 15:31:00,76.5,41.9,29.83,SW,234,4.0,6.0,29,0.00,,,0.00,Wunderground v.1.13,2013-06-15 19:31:00,
2013-06-15 16:01:00,75.3,40.8,29.82,SW,225,5.0,5.0,29,0.00,,,0.00,Wunderground v.1.13,2013-06-15 20:01:00,
2013-06-15 16:31:00,75.4,41.8,29.82,SW,236,3.0,3.0,30,0.00,,,0.00,Wunderground v.1.13,2013-06-15 20:31:00,
2013-06-15 17:01:00,75.6,45.2,29.80,SW,220,4.0,4.0,34,0.00,,,0.00,Wunderground v.1.13,2013-06-15 21:01:00,
2013-06-15 17:31:00,74.9,46.1,29.80,WSW,246,4.0,5.0,36,0.00,,,0.00,Wunderground v.1.13,2013-06-15 21:31:00,
2013-06-15 18:01:00,73.7,47.2,29.79,WSW,240,7.0,10.0,39,0.00,,,0.00,Wunderground v.1.13,2013-06-15 22:01:00,
2013-06-15 18:31:00,73.5,48.4,29.79,SSW,200,3.0,3.0,41,0.00,,,0.00,Wunderground v.1.13,2013-06-15 22:31:00,
2013-06-15 19:01:00,72.8,49.0,29.79,SW,219,7.0,7.0,43,0.00,,,0.00,Wunderground v.1.13,2013-06-15 23:01:00,
2013-06-15 19:31:00,71.3,47.6,29.80,SW,223,7.0,7.0,43,0.00,,,0.00,Wunderground v.1.13,2013-06-15 23:31:00,
2013-06-15 20:01:00,69.9,47.6,29.80,SW,228,5.0,6.0,45,0.00,,,0.00,Wunderground v.1.13,2013-06-16 00:01:00,
2013-06-15 20:31:00,68.9,46.7,29.80,SW,225,5.0,7.0,45,0.00,,,0.00,Wunderground v.1.13,2013-06-16 00:31:00,
2013-06-15 21:01:00,67.8,44.5,29.82,SSW,201,6.0,6.0,43,0.00,,,0.00,Wunderground v.1.13,2013-06-16 01:01:00,
2013-06-15 21:31:00,66.3,45.5,29.82,SSW,199,4.0,4.0,47,0.00,,,0.00,Wunderground v.1.13,2013-06-16 01:31:00,
2013-06-15 22:01:00,64.5,45.4,29.82,SW,216,3.0,5.0,50,0.00,,,0.00,Wunderground v.1.13,2013-06-16 02:01:00,
2013-06-15 22:31:00,63.7,45.2,29.83,SSW,213,3.0,3.0,51,0.00,,,0.00,Wunderground v.1.13,2013-06-16 02:31:00,
2013-06-15 23:01:00,63.4,45.5,29.82,SSW,207,3.0,5.0,52,0.00,,,0.00,Wunderground v.1.13,2013-06-16 03:01:00,
2013-06-15 23:31:00,63.2,45.8,29.81,SSW,198,4.0,7.0,53,0.00,,,0.00,Wunderground v.1.13,2013-06-16 03:31:00,